Hourly Weather Jumilla

Today, 24 November, Tuesday

Time Temperature Precipitation Wind Pressure Humidity
00:00 +7°C° 0 mm 1 mps 710 mmHg 89%
01:00 +6°C° 0 mm 1 mps 709 mmHg 90%
02:00 +5°C° 0 mm 0 mps 709 mmHg 91%
03:00 +5°C° 0 mm 0 mps 708 mmHg 92%
04:00 +4°C° 0 mm 0 mps 708 mmHg 92%
05:00 +4°C° 0 mm 0 mps 708 mmHg 92%
06:00 +4°C° 0 mm 0 mps 708 mmHg 93%
07:00 +5°C° 0 mm 0 mps 709 mmHg 88%
08:00 +7°C° 0 mm 0 mps 709 mmHg 83%
09:00 +9°C° 0 mm 0 mps 709 mmHg 78%
10:00 +11°C° 0 mm 1 mps 709 mmHg 71%
11:00 +12°C° 0 mm 1 mps 709 mmHg 64%
12:00 +13°C° 0 mm 1 mps 708 mmHg 57%
13:00 +13°C° 0 mm 1 mps 708 mmHg 55%
14:00 +13°C° 0 mm 1 mps 707 mmHg 53%
15:00 +14°C° 0 mm 1 mps 707 mmHg 52%
16:00 +12°C° 0 mm 1 mps 707 mmHg 60%
17:00 +10°C° 0 mm 1 mps 706 mmHg 67%
18:00 +8°C° 0 mm 1 mps 706 mmHg 75%
19:00 +8°C° 0 mm 1 mps 706 mmHg 78%
20:00 +7°C° 0 mm 0 mps 706 mmHg 80%
21:00 +6°C° 0 mm 0 mps 706 mmHg 83%
22:00 +6°C° 0 mm 0 mps 706 mmHg 84%
23:00 +6°C° 0 mm 0 mps 705 mmHg 85%

Tomorrow, 25 November, Wednesday

Time Temperature Precipitation Wind Pressure Humidity
00:00 +5°C° 0 mm 0 mps 705 mmHg 85%
01:00 +5°C° 0 mm 0 mps 705 mmHg 85%
02:00 +5°C° 0 mm 0 mps 704 mmHg 84%
03:00 +5°C° 0 mm 0 mps 704 mmHg 83%
04:00 +5°C° 0 mm 0 mps 704 mmHg 83%
05:00 +6°C° 0 mm 1 mps 703 mmHg 83%
06:00 +6°C° 0 mm 1 mps 703 mmHg 83%
07:00 +7°C° 0 mm 1 mps 704 mmHg 76%
08:00 +9°C° 0 mm 1 mps 704 mmHg 69%
09:00 +11°C° 0 mm 1 mps 705 mmHg 62%
10:00 +12°C° 0 mm 1 mps 704 mmHg 58%
11:00 +13°C° 0 mm 1 mps 704 mmHg 54%
12:00 +14°C° 0 mm 1 mps 704 mmHg 50%
13:00 +14°C° 0 mm 2 mps 704 mmHg 49%
14:00 +14°C° 0 mm 3 mps 703 mmHg 48%
15:00 +14°C° 0 mm 4 mps 703 mmHg 47%
16:00 +12°C° 0 mm 3 mps 703 mmHg 58%
17:00 +10°C° 0 mm 3 mps 702 mmHg 68%
18:00 +9°C° 0 mm 2 mps 702 mmHg 79%
19:00 +9°C° 0 mm 2 mps 702 mmHg 82%
20:00 +9°C° 0 mm 2 mps 702 mmHg 84%
21:00 +9°C° 0 mm 2 mps 703 mmHg 87%
22:00 +9°C° 0 mm 2 mps 702 mmHg 88%
23:00 +9°C° 0 mm 2 mps 702 mmHg 89%

Day after tomorrow, 26 November, Thursday

Time Temperature Precipitation Wind Pressure Humidity
00:00 +9°C° 0 mm 3 mps 702 mmHg 90%
01:00 +9°C° 0 mm 3 mps 702 mmHg 90%
02:00 +9°C° 0 mm 3 mps 701 mmHg 91%
03:00 +8°C° 0 mm 4 mps 701 mmHg 91%
04:00 +8°C° 0 mm 4 mps 701 mmHg 90%
05:00 +8°C° 0 mm 4 mps 700 mmHg 90%
06:00 +7°C° 0 mm 4 mps 700 mmHg 89%
07:00 +8°C° 0 mm 5 mps 700 mmHg 85%
08:00 +9°C° 0 mm 5 mps 700 mmHg 81%
09:00 +10°C° 0 mm 6 mps 700 mmHg 77%
10:00 +11°C° 0.1 mm 7 mps 700 mmHg 72%
11:00 +12°C° 0.1 mm 8 mps 700 mmHg 67%
12:00 +13°C° 0.1 mm 9 mps 700 mmHg 63%
13:00 +13°C° 0.1 mm 9 mps 700 mmHg 60%
14:00 +13°C° 0.1 mm 8 mps 699 mmHg 58%
15:00 +14°C° 0.1 mm 7 mps 699 mmHg 55%
16:00 +13°C° 0 mm 6 mps 699 mmHg 61%
17:00 +12°C° 0 mm 4 mps 699 mmHg 68%
18:00 +11°C° 0 mm 3 mps 699 mmHg 74%
19:00 +11°C° 0 mm 3 mps 699 mmHg 76%
20:00 +10°C° 0 mm 3 mps 699 mmHg 78%
21:00 +10°C° 0 mm 3 mps 699 mmHg 80%
22:00 +10°C° 0 mm 4 mps 698 mmHg 77%
23:00 +9°C° 0 mm 6 mps 698 mmHg 74%

27 November, Friday

Time Temperature Precipitation Wind Pressure Humidity
00:00 +10°C° 0 mm 7 mps 698 mmHg 72%
01:00 +9°C° 1.8 mm 6 mps 698 mmHg 78%
02:00 +9°C° 1.8 mm 5 mps 697 mmHg 83%
03:00 +10°C° 1.8 mm 4 mps 697 mmHg 89%
04:00 +10°C° 0.3 mm 4 mps 697 mmHg 89%
05:00 +8°C° 0.3 mm 4 mps 696 mmHg 88%
06:00 +8°C° 0.3 mm 4 mps 696 mmHg 88%
07:00 +9°C° 0.8 mm 5 mps 696 mmHg 88%
08:00 +9°C° 0.8 mm 5 mps 696 mmHg 88%
09:00 +9°C° 0.8 mm 6 mps 696 mmHg 88%
10:00 +9°C° 2.4 mm 6 mps 695 mmHg 88%
11:00 +9°C° 2.4 mm 6 mps 695 mmHg 88%
12:00 +8°C° 2.4 mm 5 mps 695 mmHg 89%
13:00 +8°C° 3 mm 4 mps 695 mmHg 89%
14:00 +8°C° 3 mm 4 mps 694 mmHg 89%
15:00 +10°C° 3 mm 3 mps 694 mmHg 88%
16:00 +9°C° 0.9 mm 3 mps 694 mmHg 89%
17:00 +9°C° 0.9 mm 3 mps 694 mmHg 89%
18:00 +9°C° 0.9 mm 3 mps 694 mmHg 89%
19:00 +9°C° 1.8 mm 3 mps 694 mmHg 90%
20:00 +9°C° 1.8 mm 3 mps 694 mmHg 91%
21:00 +9°C° 1.8 mm 3 mps 694 mmHg 91%
22:00 +9°C° 2.6 mm 3 mps 694 mmHg 91%
23:00 +8°C° 2.6 mm 4 mps 693 mmHg 91%

28 November, Saturday

Time Temperature Precipitation Wind Pressure Humidity
00:00 +8°C° 2.6 mm 4 mps 693 mmHg 90%
01:00 +8°C° 1 mm 4 mps 693 mmHg 90%
02:00 +8°C° 1 mm 4 mps 693 mmHg 90%
03:00 +8°C° 1 mm 4 mps 693 mmHg 90%
04:00 +8°C° 0.2 mm 5 mps 693 mmHg 89%
05:00 +8°C° 0.2 mm 5 mps 693 mmHg 87%
06:00 +8°C° 0.2 mm 5 mps 693 mmHg 86%
07:00 +8°C° 0.8 mm 6 mps 693 mmHg 84%
08:00 +8°C° 0.8 mm 6 mps 694 mmHg 83%
09:00 +8°C° 0.8 mm 6 mps 694 mmHg 82%
10:00 +9°C° 0.3 mm 6 mps 695 mmHg 79%
11:00 +9°C° 0.3 mm 6 mps 695 mmHg 77%
12:00 +10°C° 0.3 mm 6 mps 695 mmHg 75%
13:00 +10°C° 0 mm 6 mps 695 mmHg 71%
14:00 +12°C° 0 mm 5 mps 695 mmHg 68%
15:00 +13°C° 0 mm 5 mps 696 mmHg 64%
16:00 +12°C° 0 mm 4 mps 696 mmHg 68%
17:00 +11°C° 0 mm 4 mps 696 mmHg 71%
18:00 +10°C° 0 mm 4 mps 697 mmHg 74%
19:00 +8°C° 0 mm 4 mps 697 mmHg 75%
20:00 +8°C° 0 mm 4 mps 698 mmHg 76%
21:00 +8°C° 0 mm 4 mps 698 mmHg 77%
22:00 +8°C° 0 mm 3 mps 698 mmHg 78%
23:00 +8°C° 0 mm 3 mps 699 mmHg 80%

29 November, Sunday

Time Temperature Precipitation Wind Pressure Humidity
00:00 +7°C° 0 mm 2 mps 699 mmHg 82%
01:00 +7°C° 0 mm 2 mps 699 mmHg 83%
02:00 +7°C° 0 mm 2 mps 699 mmHg 84%
03:00 +8°C° 0 mm 1 mps 699 mmHg 85%
04:00 +7°C° 0 mm 1 mps 699 mmHg 86%
05:00 +7°C° 0 mm 1 mps 699 mmHg 86%
06:00 +7°C° 0 mm 1 mps 698 mmHg 87%
07:00 +7°C° 0 mm 0 mps 699 mmHg 80%
08:00 +9°C° 0 mm 0 mps 700 mmHg 74%
09:00 +10°C° 0 mm 0 mps 700 mmHg 68%
10:00 +12°C° 0 mm 1 mps 701 mmHg 64%
11:00 +13°C° 0 mm 2 mps 701 mmHg 60%
12:00 +14°C° 0 mm 2 mps 701 mmHg 57%
13:00 +13°C° 0 mm 3 mps 701 mmHg 58%
14:00 +13°C° 0 mm 3 mps 700 mmHg 59%
15:00 +13°C° 0 mm 4 mps 700 mmHg 60%
16:00 +12°C° 0 mm 3 mps 700 mmHg 67%
17:00 +11°C° 0 mm 3 mps 700 mmHg 74%
18:00 +9°C° 0 mm 2 mps 700 mmHg 81%
19:00 +9°C° 0 mm 2 mps 700 mmHg 83%
20:00 +9°C° 0 mm 2 mps 700 mmHg 85%
21:00 +9°C° 0 mm 2 mps 701 mmHg 87%
22:00 +9°C° 0 mm 2 mps 701 mmHg 88%
23:00 +9°C° 0 mm 2 mps 701 mmHg 89%
Show more